Stations météo

réclame
Mon MeteoGroup
D15-FA-1, Pays-Bas (6201): Température de l'air & dewpoint: 12.07.2019 19:00:00 - 18.07.2019 19:00:00 (CEST)D15-FA-1, Pays-Bas (6201): Vitesse du vent & gusts: 12.07.2019 19:00:00 - 18.07.2019 19:00:00 (CEST)D15-FA-1, Pays-Bas (6201): Direction du vent: 12.07.2019 19:00:00 - 18.07.2019 19:00:00 (CEST)D15-FA-1, Pays-Bas (6201): reduced air pressure: 12.07.2019 19:00:00 - 18.07.2019 19:00:00 (CEST)D15-FA-1, Pays-Bas (6201): visibility: 12.07.2019 19:00:00 - 18.07.2019 19:00:00 (CEST)
Date & Time tt [°C] td [°C] ff [km/h] ff [knt] fx [km/h] fx [knt] dd ppp [hPa] vv [km]
18.07.2019 19:00:00 15,9 12,1 9 5 18 10 W 1008,9 10
18.07.2019 18:00:00 16,2 12,5 18 10 22 12 W 1008,8 10
18.07.2019 17:00:00 15,9 12,6 29 16 29 16 W 1008,6 10
18.07.2019 16:00:00 16,0 13,3 22 12 25 14 WSW 1008,4 10
18.07.2019 15:00:00 15,7 14,2 28 15 29 16 WSW 1007,9 10
18.07.2019 14:00:00 15,5 15,1 28 15 29 16 SW 1007,5 3,8
18.07.2019 13:00:00 15,9 14,8 26 14 29 16 WSW 1007,6 10
18.07.2019 12:00:00 16,4 14,2 29 16 29 16 SW 1007,1 10
18.07.2019 11:00:00 16,5 14,7 31 17 32 18 SW 1007,2 10
18.07.2019 10:00:00 16,5 15,1 22 12 22 12 SSE 1007,2 10
18.07.2019 09:00:00 16,4 15,2 26 14 29 16 SSE 1007,3 10
18.07.2019 08:00:00 16,2 14,6 15 8 25 14 SSE 1007,4 10
18.07.2019 07:00:00 16,0 14,9 16 9 29 16 S 1007,9 10
18.07.2019 06:00:00 16,5 14,7 29 16 32 18 SSW 1008,2 10
18.07.2019 05:00:00 16,9 14,0 34 18 36 19 S 1008,2 10
18.07.2019 04:00:00 17,1 13,6 39 21 40 21 S 1008,6 10
18.07.2019 03:00:00 17,2 13,4 41 22 40 21 S 1009,0 10
18.07.2019 02:00:00 17,3 13,4 42 23 40 21 S 1009,6 10
18.07.2019 01:00:00 17,2 13,8 39 21 36 19 S 1009,9 10
18.07.2019 00:00:00 17,3 13,5 37 20 40 21 S 1010,2 10
17.07.2019 23:00:00 17,1 13,9 31 17 32 18 S 1010,6 10
17.07.2019 22:00:00 16,9 14,1 34 18 32 18 S 1011,0 10
17.07.2019 21:00:00 16,9 14,3 34 18 32 18 S 1011,2 10
17.07.2019 20:00:00 17,0 14,1 31 17 32 18 S 1011,6 10
17.07.2019 19:00:00 17,0 14,1 31 17 32 18 S 1011,8 10
17.07.2019 18:00:00 17,1 13,8 31 17 32 18 S 1012,4 10
17.07.2019 17:00:00 16,8 14,8 28 15 29 16 S 1012,9 10
17.07.2019 16:00:00 16,7 15,0 28 15 29 16 S 1013,4 10
17.07.2019 15:00:00 16,6 15,1 24 13 25 14 S 1013,6 10
17.07.2019 14:00:00 16,6 15,3 21 11 22 12 S 1014,0 10
17.07.2019 13:00:00 16,7 15,2 18 10 25 14 S 1014,4 10
17.07.2019 12:00:00 16,7 14,9 22 12 25 14 SSW 1014,5 10
17.07.2019 11:00:00 16,6 15,0 18 10 29 16 S 1014,6 10
17.07.2019 10:00:00 16,4 15,2 21 11 25 14 SSW 1014,7 10
17.07.2019 09:00:00 16,2 15,0 18 10 22 12 S 1014,8 10
17.07.2019 08:00:00 16,1 14,9 22 12 22 12 S 1014,8 10
17.07.2019 07:00:00 15,8 14,7 18 10 18 10 S 1014,9 10
17.07.2019 06:00:00 15,7 14,4 16 9 14 8 S 1015,3 10
17.07.2019 05:00:00 15,7 14,3 15 8 18 10 SSW 1015,5 10
17.07.2019 04:00:00 15,7 14,4 15 8 22 12 S 1016,0 10
17.07.2019 03:00:00 15,7 14,4 15 8 29 16 SSW 1016,5 10
17.07.2019 02:00:00 15,8 14,5 18 10 25 14 SSW 1016,9 10
17.07.2019 01:00:00 15,8 14,4 18 10 29 16 SSW 1017,0 10
17.07.2019 00:00:00 15,8 14,0 13 7 22 12 S 1017,2 10
16.07.2019 23:00:00 15,8 13,7 16 9 29 16 SSW 1017,3 10
16.07.2019 22:00:00 15,7 13,5 15 8 25 14 S 1017,4 10
16.07.2019 21:00:00 15,6 13,0 16 9 25 14 S 1017,5 10
16.07.2019 20:00:00 15,4 12,9 11 6 14 8 S 1017,6 10
16.07.2019 19:00:00 15,3 12,7 8 4 11 6 S 1017,8 10
16.07.2019 18:00:00 15,2 12,4 11 6 14 8 S 1018,1 10
16.07.2019 17:00:00 15,1 12,1 11 6 18 10 W 1018,4 10
16.07.2019 16:00:00 15,0 12,2 8 4 11 6 W 1018,5 10
16.07.2019 15:00:00 14,6 11,7 4 2 7 4 - 1018,6 10
16.07.2019 14:00:00 14,1 11,6 5 3 18 10 WNW 1018,7 10
16.07.2019 13:00:00 13,9 11,2 9 5 14 8 NW 1018,9 10
16.07.2019 12:00:00 13,8 11,1 11 6 14 8 NW 1019,0 49
16.07.2019 11:00:00 13,7 11,0 11 6 18 10 WNW 1019,0 48
16.07.2019 10:00:00 13,5 10,8 14 8 18 10 NW 1019,2 50
16.07.2019 09:00:00 13,6 10,6 14 8 18 10 NW 1019,1 39
16.07.2019 08:00:00 13,4 10,3 14 8 22 12 WNW 1019,2 50
16.07.2019 07:00:00 13,4 10,5 11 6 22 12 NW 1019,0 50
16.07.2019 06:00:00 13,4 10,7 14 8 25 14 WNW 1019,0 50
16.07.2019 05:00:00 13,5 10,4 14 8 22 12 NW 1019,3 49
16.07.2019 04:00:00 13,4 9,9 14 8 22 12 NW 1019,6 49
16.07.2019 03:00:00 13,5 10,1 14 8 18 10 NW 1019,9 49
16.07.2019 02:00:00 13,5 9,9 14 8 22 12 NW 1020,3 50
16.07.2019 01:00:00 13,6 9,8 14 8 18 10 NNW 1020,4 49
16.07.2019 00:00:00 13,6 9,7 13 7 18 10 NW 1020,7 10
15.07.2019 23:00:00 13,6 9,9 16 9 25 14 NNW 1020,4 10
15.07.2019 22:00:00 13,4 9,2 18 10 25 14 NNW 1020,6 10
15.07.2019 21:00:00 13,5 9,1 26 14 29 16 NNW 1020,5 10
15.07.2019 20:00:00 13,7 8,9 22 12 29 16 NNW 1020,7 46
15.07.2019 19:00:00 13,9 9,7 29 16 29 16 NNW 1020,8 10
15.07.2019 18:00:00 14,0 10,2 28 15 29 16 NNW 1021,0 10
15.07.2019 17:00:00 14,0 9,7 26 14 29 16 NW 1021,3 10
15.07.2019 16:00:00 13,9 10,0 28 15 32 18 NNW 1021,3 10
15.07.2019 15:00:00 14,1 10,0 28 15 32 18 NNW 1021,5 10
15.07.2019 14:00:00 13,4 11,0 31 17 32 18 N 1021,5 10
15.07.2019 13:00:00 13,1 11,2 26 14 32 18 N 1021,5 10
15.07.2019 12:00:00 13,7 10,5 35 19 36 19 NNW 1021,5 10
15.07.2019 11:00:00 13,7 9,7 31 17 36 19 N 1021,1 10
15.07.2019 10:00:00 12,7 11,5 31 17 36 19 NNW 1021,2 5
15.07.2019 09:00:00 13,7 10,7 37 20 43 23 NNW 1021,1 10
15.07.2019 08:00:00 13,3 10,6 31 17 40 21 N 1021,1 10
15.07.2019 07:00:00 13,3 10,7 39 21 40 21 N 1021,1 10
15.07.2019 06:00:00 13,6 10,6 31 17 36 19 NNW 1021,3 10
15.07.2019 05:00:00 13,1 11,0 31 17 40 21 N 1021,3 10
15.07.2019 04:00:00 13,4 10,1 31 17 36 19 N 1021,6 10
15.07.2019 03:00:00 13,4 9,4 37 20 40 21 N 1022,1 10
15.07.2019 02:00:00 13,7 9,4 31 17 40 21 N 1022,4 10
15.07.2019 01:00:00 13,6 9,0 34 18 40 21 N 1022,4 10
15.07.2019 00:00:00 13,6 9,1 35 19 36 19 N 1022,4 10
14.07.2019 23:00:00 13,6 9,0 35 19 36 19 N 1022,5 10
14.07.2019 22:00:00 13,9 9,0 35 19 40 21 N 1022,4 10
14.07.2019 21:00:00 13,8 8,5 31 17 40 21 NNW 1022,5 10
14.07.2019 20:00:00 13,7 8,6 41 22 40 21 N 1022,5 10
14.07.2019 19:00:00 13,8 8,5 35 19 36 19 N 1022,6 10
14.07.2019 18:00:00 13,9 9,0 37 20 36 19 N 1022,6 10
14.07.2019 17:00:00 13,7 9,9 34 18 36 19 NNW 1022,9 10
14.07.2019 16:00:00 13,8 10,3 34 18 36 19 NNW 1022,7 10
14.07.2019 15:00:00 13,7 10,5 31 17 32 18 N 1022,7 10
14.07.2019 14:00:00 13,4 10,0 35 19 40 21 N 1022,7 10
14.07.2019 13:00:00 13,4 10,1 35 19 40 21 N 1022,4 10
14.07.2019 12:00:00 13,9 9,8 37 20 40 21 N 1022,0 10
14.07.2019 11:00:00 14,1 9,3 39 21 40 21 N 1022,0 10
14.07.2019 10:00:00 14,1 9,3 44 24 50 27 N 1021,8 10
14.07.2019 09:00:00 14,4 9,5 46 25 47 25 N 1021,4 10
14.07.2019 08:00:00 14,4 11,6 44 24 43 23 N 1021,2 10
14.07.2019 07:00:00 14,4 12,1 28 15 43 23 NW 1021,2 10
14.07.2019 06:00:00 15,0 11,1 37 20 40 21 NNW 1021,2 10
14.07.2019 05:00:00 14,9 11,1 34 18 40 21 NNW 1021,2 10
14.07.2019 04:00:00 14,9 11,6 39 21 40 21 NNW 1021,4 10
14.07.2019 03:00:00 14,9 11,0 37 20 40 21 NNW 1021,6 10
14.07.2019 02:00:00 15,1 10,9 35 19 36 19 NNW 1021,6 10
14.07.2019 01:00:00 14,7 11,2 35 19 36 19 NNW 1021,8 10
14.07.2019 00:00:00 14,9 10,0 35 19 40 21 NNW 1021,9 10
13.07.2019 23:00:00 14,2 12,0 37 20 40 21 NW 1022,0 10
13.07.2019 22:00:00 14,5 11,9 37 20 36 19 NNW 1021,9 10
13.07.2019 21:00:00 14,7 11,3 37 20 40 21 NNW 1021,5 10
13.07.2019 20:00:00 14,5 11,0 42 23 43 23 N 1021,4 10
13.07.2019 19:00:00 14,5 10,6 41 22 40 21 NNW 1021,1 10
13.07.2019 18:00:00 14,6 11,0 35 19 40 21 NNW 1021,1 10
13.07.2019 17:00:00 14,6 11,5 35 19 40 21 N 1021,0 10
13.07.2019 16:00:00 14,7 11,3 35 19 36 19 N 1020,8 10
13.07.2019 15:00:00 14,6 11,3 37 20 40 21 N 1020,9 10
13.07.2019 14:00:00 14,5 10,9 35 19 40 21 NNW 1020,8 10
13.07.2019 13:00:00 14,1 11,4 34 18 36 19 NNW 1020,5 10
13.07.2019 12:00:00 14,3 11,2 35 19 36 19 NNW 1020,1 10
13.07.2019 11:00:00 13,9 12,5 34 18 32 18 N 1019,8 10
13.07.2019 10:00:00 14,1 11,3 31 17 36 19 N 1019,5 10
13.07.2019 09:00:00 14,5 9,7 39 21 40 21 N 1019,2 10
13.07.2019 08:00:00 14,8 10,7 41 22 40 21 N 1018,5 10
13.07.2019 07:00:00 14,8 12,0 35 19 40 21 N 1017,7 10
13.07.2019 06:00:00 14,8 13,4 39 21 36 19 N 1017,6 10
13.07.2019 05:00:00 15,0 14,1 37 20 36 19 N 1017,1 10
13.07.2019 04:00:00 15,5 14,6 28 15 29 16 NNW 1016,8 6
13.07.2019 03:00:00 15,8 14,8 22 12 22 12 NNW 1016,7 10
13.07.2019 02:00:00 15,7 14,8 21 11 22 12 NW 1016,6 10
13.07.2019 01:00:00 15,5 15,0 21 11 22 12 NNW 1016,6 4,0
13.07.2019 00:00:00 15,9 14,7 24 13 25 14 NNW 1016,3 10
12.07.2019 23:00:00 15,9 14,6 28 15 32 18 N 1015,7 10
12.07.2019 22:00:00 15,9 14,8 29 16 32 18 N 1015,1 10
12.07.2019 21:00:00 16,0 14,5 24 13 29 16 NNW 1014,5 10
12.07.2019 20:00:00 15,9 14,3 26 14 25 14 NNW 1014,0 10
12.07.2019 19:00:00 15,5 14,2 26 14 25 14 NNW 1013,3 10

tt = Température de l'air
td = dewpoint
ff = Vitesse du vent
fx = gusts
dd = Direction du vent
ppp = reduced air pressure
vv = visibility

stations d'obs. à proximité